Date String (YYYY-MM-DD hh:mm:ss) UTC,Instrument flags,absolute air pressure of the measurement (hPa),sample flow rate (lpm),inlet stack bypass flow (lpm),air temperature of the measurement (°C),ambient temperature measured by the external sensor (°C),aerosol sample conditioner tube jacket temperature (°C),OPC LED temperature (°C),internal box temperature (°C),relative humidity of the measurement (%),span deviation,mass concentration of particles derived from Lorenz-Mie calculation of OPC scattering (μg/m³),mass concentration of particles derived from Lorenz-Mie calculation of OPC scattering (μg/m³),mass concentration of particles derived from Lorenz-Mie calculation of OPC scattering (μg/m³)
DateTimeUTC,F1_M11,P_M11,Q1_M11,Q2_M11,T1_M11,T2_M11,T3_M11,T4_M11,T5_M11,U1_M11,ZSPAN_M11,X0_M11,X2_M11,X1_M11
2023-12-08 19:00:00,SystemResetWarning,0820.8,4.99,000.00,021.7,020.9,000.0,029.9,023.1,11.9,0000.0,0007.95,0002.63,0001.77
2023-12-08 19:01:00,SystemResetWarning,0820.8,5.00,000.00,021.7,020.9,000.0,029.9,023.1,11.9,0000.0,0007.57,0002.65,0001.75
2023-12-08 19:02:00,SystemResetWarning,0820.8,5.00,000.00,021.7,020.9,000.0,029.9,023.1,11.9,0000.0,0007.14,0002.60,0001.73
2023-12-08 19:03:00,SystemResetWarning,0820.8,5.00,000.00,021.7,020.9,000.0,030.0,023.1,11.8,0000.0,0006.96,0002.57,0001.72
2023-12-08 19:04:00,SystemResetWarning,0820.8,5.01,000.00,021.7,020.9,000.0,030.0,023.1,12.1,0000.0,0006.68,0002.51,0001.70
2023-12-08 19:05:00,SystemResetWarning,0820.8,4.99,000.00,021.7,020.9,000.0,030.0,023.1,12.4,0000.0,0006.44,0002.51,0001.70
2023-12-08 19:06:00,SystemResetWarning,0820.8,5.00,000.00,021.7,020.9,000.0,030.0,023.1,12.2,0000.0,0006.34,0002.51,0001.69
2023-12-08 19:07:00,SystemResetWarning,0820.8,5.00,000.00,021.7,020.9,000.0,030.0,023.1,12.4,0000.0,0006.17,0002.48,0001.67
2023-12-08 19:08:00,SystemResetWarning,0820.8,5.00,000.00,021.7,020.9,000.0,030.0,023.1,12.4,0000.0,0006.04,0002.44,0001.66
2023-12-08 19:09:00,SystemResetWarning,0820.8,5.00,000.00,021.8,020.9,000.0,030.0,023.1,12.4,0000.0,0005.31,0002.41,0001.65
2023-12-08 19:10:00,SystemResetWarning,0820.8,5.00,000.00,021.8,020.9,000.0,030.0,023.1,12.3,0000.0,0005.19,0002.39,0001.65
2023-12-08 19:11:00,SystemResetWarning,0820.9,5.00,000.00,021.8,020.9,000.0,030.0,023.1,12.2,0000.0,0005.00,0002.36,0001.63
2023-12-08 19:12:00,SystemResetWarning,0820.8,5.00,000.00,021.8,020.9,000.0,030.0,023.1,12.2,0000.0,0005.41,0002.32,0001.62
2023-12-08 19:13:00,SystemResetWarning,0820.8,5.01,000.00,021.8,020.9,000.0,030.0,023.1,12.3,0000.0,0006.04,0002.30,0001.61
2023-12-08 19:14:00,SystemResetWarning,0820.8,5.00,000.00,021.8,020.9,000.0,030.0,023.1,12.4,0000.0,0007.16,0002.33,0001.61
2023-12-08 19:15:00,SystemResetWarning,0820.8,4.99,000.00,021.8,020.9,000.0,030.0,023.1,12.5,0000.0,0007.33,0002.34,0001.62
2023-12-08 19:16:00,SystemResetWarning,0820.8,4.99,000.00,021.8,020.9,000.0,030.0,023.1,12.6,0000.0,0007.40,0002.38,0001.63
2023-12-08 19:17:00,SystemResetWarning,0820.7,5.00,000.00,021.8,020.9,000.0,030.0,023.1,12.4,0000.0,0007.45,0002.44,0001.67
2023-12-08 19:18:00,SystemResetWarning,0820.8,5.01,000.00,021.8,020.9,000.0,030.0,023.1,12.5,0000.0,0007.45,0002.52,0001.71
2023-12-08 19:19:00,SystemResetWarning,0820.8,5.01,000.00,021.8,020.9,000.0,030.0,023.1,12.8,0000.0,0007.67,0002.57,0001.76
2023-12-08 19:20:00,SystemResetWarning,0820.8,5.00,000.00,021.8,020.9,000.0,030.0,023.1,13.0,0000.0,0008.29,0002.60,0001.81
2023-12-08 19:21:00,SystemResetWarning,0820.8,5.01,000.00,021.8,020.9,000.0,030.0,023.1,13.0,0000.0,0008.27,0002.68,0001.87
2023-12-08 19:22:00,SystemResetWarning,0820.8,5.00,000.00,021.8,020.9,000.0,030.0,023.1,13.0,0000.0,0008.33,0002.78,0002.00
2023-12-08 19:23:00,SystemResetWarning,0820.8,4.99,000.00,021.8,020.9,000.0,030.0,023.1,13.1,0000.0,0008.11,0002.95,0002.18
2023-12-08 19:24:00,SystemResetWarning,0820.8,4.99,000.00,021.8,020.9,000.0,030.0,023.1,13.2,0000.0,0007.85,0003.15,0002.39
2023-12-08 19:25:00,SystemResetWarning,0820.7,5.01,000.00,021.8,020.9,000.0,030.0,023.1,13.3,0000.0,0007.59,0003.26,0002.56
2023-12-08 19:26:00,SystemResetWarning,0820.7,5.02,000.00,021.8,020.9,000.0,030.0,023.1,13.3,0000.0,0007.75,0003.36,0002.72
2023-12-08 19:27:00,SystemResetWarning,0820.7,5.00,000.00,021.8,020.9,000.0,030.1,023.1,13.1,0000.0,0007.95,0003.49,0002.94
2023-12-08 19:28:00,SystemResetWarning,0820.7,4.99,000.00,021.8,020.9,000.0,030.1,023.1,13.1,0000.0,0008.18,0003.65,0003.13
2023-12-08 19:29:00,SystemResetWarning,0820.7,5.00,000.00,021.8,020.9,000.0,030.1,023.1,13.0,0000.0,0008.31,0003.80,0003.30
2023-12-08 19:30:00,SystemResetWarning,0820.7,4.99,000.00,021.8,020.9,000.0,030.1,023.1,12.9,0000.0,0008.50,0003.98,0003.45
2023-12-08 19:31:00,SystemResetWarning,0820.7,5.00,000.00,021.8,020.9,000.0,030.1,023.1,12.9,0000.0,0007.82,0004.07,0003.53
2023-12-08 19:32:00,SystemResetWarning,0820.7,5.01,000.00,021.8,020.9,000.0,030.1,023.1,13.1,0000.0,0008.22,0004.09,0003.56
2023-12-08 19:33:00,SystemResetWarning,0820.8,5.01,000.00,021.8,020.9,000.0,030.1,023.1,13.0,0000.0,0008.65,0004.12,0003.54
2023-12-08 19:34:00,SystemResetWarning,0820.8,5.00,000.00,021.8,020.9,000.0,030.1,023.1,13.1,0000.0,0008.63,0004.08,0003.50
2023-12-08 19:35:00,SystemResetWarning,0820.7,4.99,000.00,021.8,020.9,000.0,030.1,023.1,13.5,0000.0,0008.43,0004.00,0003.43
2023-12-08 19:36:00,SystemResetWarning,0820.8,4.99,000.00,021.8,021.0,000.0,030.1,023.2,13.6,0000.0,0008.29,0003.98,0003.37
2023-12-08 19:37:00,SystemResetWarning,0820.7,5.00,000.00,021.8,021.0,000.0,030.1,023.2,13.8,0000.0,0008.99,0003.93,0003.32
2023-12-08 19:38:00,SystemResetWarning,0820.8,5.00,000.00,021.8,021.0,000.0,030.1,023.2,14.0,0000.0,0008.73,0003.81,0003.24
2023-12-08 19:39:00,SystemResetWarning,0820.7,5.00,000.00,021.8,021.0,000.0,030.1,023.2,13.9,0000.0,0008.50,0003.68,0003.12
2023-12-08 19:40:00,SystemResetWarning,0820.7,5.01,000.00,021.8,021.0,000.0,030.1,023.2,14.1,0000.0,0008.45,0003.55,0002.90
2023-12-08 19:41:00,SystemResetWarning,0820.7,5.01,000.00,021.8,021.0,000.0,030.1,023.2,14.0,0000.0,0009.11,0003.38,0002.63
2023-12-08 19:42:00,SystemResetWarning,0820.7,5.01,000.00,021.8,020.9,000.0,030.1,023.2,13.9,0000.0,0009.62,0003.30,0002.49
2023-12-08 19:43:00,SystemResetWarning,0820.6,5.00,000.00,021.8,020.9,000.0,030.1,023.1,13.9,0000.0,0009.42,0003.27,0002.44
2023-12-08 19:44:00,SystemResetWarning,0820.6,4.99,000.00,021.8,020.9,000.0,030.1,023.1,13.5,0000.0,0008.94,0003.23,0002.43
2023-12-08 19:45:00,SystemResetWarning,0820.6,4.99,000.00,021.8,020.9,000.0,030.1,023.1,13.5,0000.0,0008.92,0003.24,0002.44
2023-12-08 19:46:00,SystemResetWarning,0820.6,4.99,000.00,021.8,020.9,000.0,030.1,023.1,13.5,0000.0,0008.94,0003.25,0002.46
2023-12-08 19:47:00,SystemResetWarning,0820.6,5.01,000.00,021.8,020.9,000.0,030.1,023.2,13.6,0000.0,0008.92,0003.23,0002.47
2023-12-08 19:48:00,SystemResetWarning,0820.6,5.01,000.00,021.8,021.0,000.0,030.1,023.2,13.9,0000.0,0008.20,0003.26,0002.48
2023-12-08 19:49:00,SystemResetWarning,0820.6,5.00,000.00,021.8,021.0,000.0,030.1,023.1,14.0,0000.0,0008.42,0003.31,0002.50
2023-12-08 19:50:00,SystemResetWarning,0820.5,4.98,000.00,021.8,021.0,000.0,030.1,023.1,14.2,0000.0,0008.62,0003.35,0002.54
2023-12-08 19:51:00,SystemResetWarning,0820.6,4.99,000.00,021.8,021.0,000.0,030.1,023.1,14.3,0000.0,0008.73,0003.38,0002.58
2023-12-08 19:52:00,SystemResetWarning,0820.8,5.01,000.00,021.8,020.9,000.0,030.1,023.1,14.5,0000.0,0008.53,0003.42,0002.59
2023-12-08 19:53:00,SystemResetWarning,0820.6,5.01,000.00,021.8,020.9,000.0,030.1,023.1,14.4,0000.0,0007.63,0003.44,0002.60
2023-12-08 19:54:00,SystemResetWarning,0820.9,5.00,000.00,021.8,020.9,000.0,030.1,023.1,14.5,0000.0,0007.56,0003.46,0002.62
2023-12-08 19:55:00,SystemResetWarning,0820.7,5.00,000.00,021.8,020.9,000.0,030.1,023.1,14.5,0000.0,0007.57,0003.50,0002.63
2023-12-08 19:56:00,SystemResetWarning,0820.9,4.99,000.00,021.8,020.9,000.0,030.1,023.1,14.6,0000.0,0008.27,0003.51,0002.62
2023-12-08 19:57:00,SystemResetWarning,0820.7,4.99,000.00,021.8,020.9,000.0,030.1,023.1,14.4,0000.0,0008.92,0003.47,0002.59
2023-12-08 19:58:00,SystemResetWarning,0820.7,5.00,000.00,021.8,020.9,000.0,030.1,023.1,14.2,0000.0,0009.04,0003.44,0002.58
2023-12-08 19:59:00,SystemResetWarning,0820.4,5.01,000.00,021.8,020.9,000.0,030.1,023.1,14.2,0000.0,0009.28,0003.40,0002.58
